Weather History for KCMI - May, 2013

Change the Weather History Date:

Friday, May 24, 2013

  Actual Average Record
Temperature  
Mean Temperature 55 °F 66 °F  
Max Temperature 69 °F 78 °F 91 °F (2007)
Min Temperature 40 °F 54 °F 40 °F (2013)
Degree Days  
Heating Degree Days 10 3  
Month to date heating degree days 96 126  
Since 1 July heating degree days 5621 5790  
Cooling Degree Days 0 4  
Month to date cooling degree days 82 52  
Year to date cooling degree days 90 63  
Growing Degree Days 4 (Base 50)    
Moisture  
Dew Point 35 °F    
Average Humidity 53    
Maximum Humidity 79    
Minimum Humidity 27    
Precipitation  
Precipitation 0.00 in 0.14 in 0.96 in (1998)
Month to date precipitation 1.85 3.59  
Year to date precipitation 14.09 14.20  
Sea Level Pressure  
Sea Level Pressure 30.34 in    
Wind  
Wind Speed 9 mph (NNE)    
Max Wind Speed 16 mph    
Max Gust Speed 21 mph    
Visibility 10 miles    
Events      
T = Trace of Precipitation, MM = Missing Value Source: NWS Daily Summary

Daily Weather History Graph

Daily Weather History Graph

Search for Another Location

Airport or City:

Trip Planner

Search our weather history database for the weather conditions in past years. The results will help you decide how hot, cold, wet, or windy it might be!

Date:

Astronomy

May. 24, 2013 Rise Set
Actual Time 5:30 AM CDT 8:10 PM CDT
Civil Twilight 4:58 AM CDT 8:41 PM CDT
Nautical Twilight 4:19 AM CDT 9:21 PM CDT
Astronomical Twilight 3:35 AM CDT 10:05 PM CDT
Moon 7:51 PM CDT (5/24) 5:02 AM CDT (5/24)
Length of Visible Light 15h 42m
Length of Day
14h 39m
Full, 100% of the Moon is Illuminated
May 24
Full
May 24
Full
May 31
Last Quarter
Jun 8
New
Jun 16
First Quarter

Hourly Weather History & Observations

Time (CDT) Temp. Windchill Dew Point Humidity Pressure Visibility Wind Dir Wind Speed Gust Speed Precip Events Conditions
12:53 AM 44.1 °F 37.7 °F 34.0 °F 68% 30.27 in 10.0 mi NNE 12.7 mph - N/A   Clear
1:53 AM 43.0 °F 36.0 °F 33.1 °F 68% 30.29 in 10.0 mi North 13.8 mph - N/A   Clear
2:53 AM 41.0 °F 34.7 °F 34.0 °F 76% 30.30 in 10.0 mi North 10.4 mph - N/A   Clear
3:53 AM 39.9 °F 32.9 °F 33.1 °F 77% 30.30 in 10.0 mi North 11.5 mph - N/A   Clear
4:53 AM 39.9 °F 32.9 °F 33.1 °F 77% 30.32 in 10.0 mi North 11.5 mph - N/A   Clear
5:53 AM 39.9 °F 32.9 °F 34.0 °F 79% 30.33 in 10.0 mi North 11.5 mph - N/A   Clear
6:53 AM 43.0 °F 36.4 °F 35.1 °F 74% 30.36 in 10.0 mi NNE 12.7 mph 19.6 mph N/A   Clear
7:53 AM 46.0 °F 41.0 °F 37.0 °F 71% 30.39 in 10.0 mi NNE 10.4 mph - N/A   Clear
8:53 AM 50.0 °F - 37.0 °F 61% 30.40 in 10.0 mi NNE 12.7 mph - N/A   Clear
9:53 AM 53.1 °F - 37.9 °F 57% 30.41 in 10.0 mi North 10.4 mph - N/A   Clear
10:53 AM 57.0 °F - 37.0 °F 47% 30.41 in 10.0 mi North 8.1 mph - N/A   Clear
11:53 AM 60.1 °F - 36.0 °F 41% 30.40 in 10.0 mi North 9.2 mph 16.1 mph N/A   Clear
12:53 PM 63.0 °F - 36.0 °F 37% 30.39 in 10.0 mi North 10.4 mph - N/A   Clear
1:53 PM 64.9 °F - 34.0 °F 32% 30.38 in 10.0 mi North 8.1 mph 16.1 mph N/A   Clear
2:53 PM 66.9 °F - 35.1 °F 31% 30.36 in 10.0 mi NE 9.2 mph - N/A   Clear
3:53 PM 68.0 °F - 34.0 °F 28% 30.34 in 10.0 mi ENE 10.4 mph - N/A   Clear
4:53 PM 68.0 °F - 34.0 °F 28% 30.32 in 10.0 mi East 8.1 mph - N/A   Clear
5:53 PM 68.0 °F - 36.0 °F 31% 30.30 in 10.0 mi NE 3.5 mph - N/A   Clear
6:53 PM 66.9 °F - 34.0 °F 30% 30.30 in 10.0 mi East 5.8 mph - N/A   Clear
7:53 PM 62.1 °F - 37.0 °F 39% 30.29 in 10.0 mi ENE 4.6 mph - N/A   Clear
8:53 PM 57.9 °F - 37.0 °F 46% 30.31 in 10.0 mi NE 6.9 mph - N/A   Clear
9:53 PM 55.0 °F - 37.0 °F 51% 30.32 in 10.0 mi ENE 6.9 mph - N/A   Clear
10:53 PM 54.0 °F - 36.0 °F 51% 30.34 in 10.0 mi NE 10.4 mph - N/A   Clear
11:53 PM 52.0 °F - 36.0 °F 54% 30.35 in 10.0 mi NE 10.4 mph - N/A   Clear